Siemreap, Cambodia

5:47 PM +07 on May 28, 2017 (GMT +0700)
Siem Reap

Weather History for VDSR - September, 2013

Change the Weather History Date:

Monday, September 16, 2013

  Actual Average Record
Temperature  
Mean Temperature 82 °F -  
Max Temperature 87 °F - - ()
Min Temperature 77 °F - - ()
Cooling Degree Days 17    
Growing Degree Days 32 (Base 50)    
Moisture  
Dew Point 75 °F    
Average Humidity 77    
Maximum Humidity 94    
Minimum Humidity 66    
Precipitation  
Precipitation 0.00 in - - ()
Sea Level Pressure  
Sea Level Pressure 29.72 in    
Wind  
Wind Speed 2 mph ()    
Max Wind Speed 13 mph    
Max Gust Speed -    
Visibility 6.1 miles    
Events Rain    
T = Trace of Precipitation, MM = Missing Value Source: Averaged Metar Reports

Daily Weather History Graph

Daily Weather History Graph

Search for Another Location

Airport or City:

Trip Planner

Search our weather history database for the weather conditions in past years. The results will help you decide how hot, cold, wet, or windy it might be!

Date:

Astronomy

Sep. 16, 2013 Rise Set
Actual Time 5:53 AM +07 6:05 PM +07
Civil Twilight 5:32 AM +07 6:26 PM +07
Nautical Twilight 5:07 AM +07 6:51 PM +07
Astronomical Twilight 4:42 AM +07 7:16 PM +07
Moon 3:28 PM +07 (9/16) 2:32 AM +07 (9/16)
Length of Visible Light 12h 54m
Length of Day
12h 11m
Waxing Gibbous, 86% of the Moon is Illuminated
Sep 16
Waxing Gibbous
Sep 19
Full
Sep 27
Last Quarter
Oct 5
New
Oct 12
First Quarter

Hourly Weather History & Observations

Time (+07) Temp. Heat Index Dew Point Humidity Pressure Visibility Wind Dir Wind Speed Gust Speed Precip Events Conditions
12:00 AM 78.8 °F - 77.0 °F 94% 29.77 in 5.0 mi Calm Calm - N/A Rain Light Rain
12:30 AM 78.8 °F - 77.0 °F 94% 29.74 in 5.0 mi Calm Calm - N/A Rain Light Rain
1:00 AM 78.8 °F - 77.0 °F 94% 29.74 in 5.0 mi WSW 3.5 mph - N/A Rain Light Rain
7:00 AM - - - %  in - Calm Calm - -  
7:00 AM 77.0 °F - 73.4 °F 89% 29.74 in 6.2 mi Calm Calm - N/A   Scattered Clouds
7:30 AM 78.8 °F - 73.4 °F 83% 29.74 in 6.2 mi Calm Calm - N/A   Scattered Clouds
8:00 AM 80.6 °F 86.2 °F 75.2 °F 84% 29.77 in 6.2 mi Calm Calm - N/A   Scattered Clouds
8:30 AM 80.6 °F 85.4 °F 73.4 °F 79% 29.77 in 6.2 mi Calm Calm - N/A   Scattered Clouds
9:00 AM 82.4 °F 89.5 °F 75.2 °F 79% 29.77 in 6.2 mi Variable 2.3 mph - N/A   Scattered Clouds
9:30 AM 84.2 °F 92.3 °F 75.2 °F 74% 29.77 in 6.2 mi West 6.9 mph - N/A   Scattered Clouds
10:00 AM 84.2 °F 92.3 °F 75.2 °F 74% 29.77 in 6.2 mi Variable 3.5 mph - N/A   Scattered Clouds
10:30 AM 84.2 °F 92.3 °F 75.2 °F 74% 29.77 in 6.2 mi Variable 2.3 mph - N/A   Scattered Clouds
11:00 AM 84.2 °F 92.3 °F 75.2 °F 74% 29.77 in 6.2 mi Calm Calm - N/A   Scattered Clouds
11:30 AM 84.2 °F 92.3 °F 75.2 °F 74% 29.77 in 6.2 mi WNW 6.9 mph - N/A   Scattered Clouds
12:00 PM 86.0 °F 95.1 °F 75.2 °F 70% 29.74 in 6.2 mi West 5.8 mph - N/A   Scattered Clouds
12:30 PM 86.0 °F 95.1 °F 75.2 °F 70% 29.74 in 6.2 mi WNW 4.6 mph - N/A   Scattered Clouds
1:00 PM 86.0 °F 95.1 °F 75.2 °F 70% 29.71 in 6.2 mi WNW 10.4 mph - N/A   Scattered Clouds
1:30 PM 86.0 °F 95.1 °F 75.2 °F 70% 29.71 in 6.2 mi WNW 9.2 mph - N/A   Scattered Clouds
2:00 PM 86.0 °F 95.1 °F 75.2 °F 70% 29.68 in 6.2 mi WNW 12.7 mph - N/A   Scattered Clouds
2:30 PM 86.0 °F 95.1 °F 75.2 °F 70% 29.68 in 6.2 mi WNW 10.4 mph - N/A   Scattered Clouds
3:00 PM 86.0 °F 95.1 °F 75.2 °F 70% 29.65 in 6.2 mi WNW 11.5 mph - N/A   Scattered Clouds
3:30 PM 86.0 °F 95.1 °F 75.2 °F 70% 29.65 in 6.2 mi WNW 8.1 mph - N/A   Scattered Clouds
4:00 PM 86.0 °F 95.1 °F 75.2 °F 70% 29.65 in 6.2 mi West 8.1 mph - N/A   Scattered Clouds
4:30 PM 87.8 °F 97.6 °F 75.2 °F 66% 29.65 in 6.2 mi Calm Calm - N/A   Scattered Clouds
5:00 PM 84.2 °F 92.3 °F 75.2 °F 74% 29.62 in 6.2 mi WSW 4.6 mph - N/A   Scattered Clouds
5:30 PM 84.2 °F 92.3 °F 75.2 °F 74% 29.65 in 6.2 mi Calm Calm - N/A   Scattered Clouds
6:00 PM 84.2 °F 92.3 °F 75.2 °F 74% 29.65 in 6.2 mi Calm Calm - N/A   Scattered Clouds
6:30 PM 84.2 °F 92.3 °F 75.2 °F 74% 29.68 in 6.2 mi WSW 1.2 mph - N/A   Partly Cloudy
7:00 PM 84.2 °F 92.3 °F 75.2 °F 74% 29.68 in 6.2 mi Calm Calm - N/A   Partly Cloudy
7:30 PM 82.4 °F 89.5 °F 75.2 °F 79% 29.71 in 6.2 mi Calm Calm - N/A   Partly Cloudy
8:00 PM 82.4 °F 89.5 °F 75.2 °F 79% 29.71 in 6.2 mi Calm Calm - N/A   Partly Cloudy
8:30 PM 82.4 °F 89.5 °F 75.2 °F 79% 29.74 in 6.2 mi Calm Calm - N/A   Partly Cloudy
9:00 PM 82.4 °F 89.5 °F 75.2 °F 79% 29.77 in 6.2 mi Calm Calm - N/A   Partly Cloudy
9:30 PM 82.4 °F 89.5 °F 75.2 °F 79% 29.77 in 6.2 mi Calm Calm - N/A   Partly Cloudy
10:00 PM 82.4 °F 89.5 °F 75.2 °F 79% 29.77 in 6.2 mi Calm Calm - N/A   Scattered Clouds
10:30 PM 82.4 °F 90.9 °F 77.0 °F 84% 29.77 in 6.2 mi Calm Calm - N/A   Scattered Clouds
11:00 PM 82.4 °F 90.9 °F 77.0 °F 84% 29.77 in 6.2 mi Calm Calm - N/A   Scattered Clouds
11:30 PM 82.4 °F 90.9 °F 77.0 °F 84% 29.77 in 6.2 mi Calm Calm - N/A   Scattered Clouds